Regional Weather Roundup
Issued by NWS

Home | Current Version | Previous Version | Graphics & Text | Print | Product List | Glossary On
Versions: 1 2 3 4 5 6 7 8 9 10 11 12 13 14 15 16 17 18 19 20 21 22 23 24 25 26 27 28 29 30 31 32 33 34 35 36 37 38 39 40 41 42 43 44 45 46 47 48 49 50
000
ASUS45 KCYS 171510
RWRWY

WYOMING REGIONAL WEATHER ROUNDUP
NATIONAL WEATHER SERVICE CHEYENNE WY
800 AM MST WED DEC 17 2014

NOTE:  "FAIR" INDICATES FEW OR NO CLOUDS BELOW 12,000 FEET
WITH NO SIGNIFICANT WEATHER AND/OR OBSTRUCTIONS TO VISIBILITY.

WYZ001-171600-
YELLOWSTONE NATIONAL PARK

CITY           SKY/WX    TMP DP  RH WIND       PRES   REMARKS
LK YELLOWSTONE   N/A     19  16  88 CALM      29.94F
W YELLOWSTONE  NOT AVBL

$$
WYZ002>013-054>058-071-098>099-171600-
NORTHERN WYOMING

CITY           SKY/WX    TMP DP  RH WIND       PRES   REMARKS
JACKSON        CLOUDY    21  19  93 CALM      29.97S
CODY           CLOUDY    16  16 100 S5        29.90S WCI   9
GREYBULL       MOCLDY    13  10  88 S3        29.98S
WORLAND        FAIR       1  -3  83 S7        29.97R FOG     WCI -12
SHERIDAN       FOG       16  12  84 SW5       29.96R VSB 1/4 WCI   9
BUFFALO        FAIR      15  12  88 W3        29.92R
GILLETTE       FAIR      11   8  88 S3        29.93S
HULETT           N/A    N/A N/A N/A MISG        N/A
NEWCASTLE      FOG       18  18 100 SE6       29.98F VSB 1/2 WCI   9

$$
WYZ014>020-022>026-101>103-171600-
CENTRAL WYOMING

CITY           SKY/WX    TMP DP  RH WIND       PRES   REMARKS
BIG PINEY      FAIR       9   6  88 NE5       29.98S WCI   1
PINEDALE       CLOUDY    18  16  93 W5        29.98S WCI  11
DUBOIS         FAIR      25  18  74 N13       29.90S WCI  13
LANDER         FAIR       2  -2  83 CALM      29.95S
RIVERTON       HAZE      14   9  80 CALM      29.97R VSB 1/4
CASPER         FAIR      24  16  71 SW12      29.92S WCI  13
DOUGLAS        FAIR       6   3  87 S3        29.94S

$$
WYZ021-027>030-104>119-171600-
SOUTHERN WYOMING

CITY           SKY/WX    TMP DP  RH WIND       PRES   REMARKS
EVANSTON       CLOUDY    23  18  81 VRB3      29.97R
FORT BRIDGER   CLOUDY    23  18  79 S8        30.00S WCI  14
ROCK SPRINGS   FOG        5   2  87 NE7       29.99R VSB 1/4 WCI  -7
DIXON          PTSUNNY   10   8  90 CALM      30.03S
RAWLINS        FAIR       9   5  84 CALM      29.97S
SARATOGA       PTSUNNY   18  14  86 CALM      29.99R
LARAMIE        FAIR      14  12  92 S8        29.96R WCI   3
CHEYENNE       CLOUDY    31  22  69 W9        29.94S WCI  23
TORRINGTON     CLOUDY    12  10  92 E6        29.99S FOG     WCI   3
PINE BLUFFS    FAIR      21  19  93 CALM      29.98R

$$


USA.gov is the U.S. government's official web portal to all federal, state and local government web resources and services.